Location: Gwatt
(46.7204°N, 7.6223°E)
Time: 23:45:32
(UTC+00:00)

Transit 2A - Pass Details

Date: 29 January 2021
Orbit: 601 x 958 km, 66.7° (Epoch: 07 March)

Event Time Altitude Azimuth Distance (km) Brightness Sun altitude
Rises 01:17:28 0° 182° (S) 3,500 - -55.2°
Reaches altitude 10° 01:20:17 10° 173° (S) 2,515 - -54.9°
Maximum altitude 01:25:20 32° 113° (ESE) 1,393 - -54.3°
Drops below altitude 10° 01:30:00 10° 52° (NE) 2,321 - -53.7°
Sets 01:32:30 0° 42° (NE) 3,190 - -53.4°
